WetterOnline ( http://www.wetteronline.de )

Wetter aktuell Braunschweig

Aktuelles Wetter: Braunschweig/Flughafen (88m)

6-stündlich | Neueste Meldungen
Ortszeit Temperatur Wetter
So, 21.01. 19:00 1.2° C bedeckt
So, 21.01. 13:00 -0.3° C Nebel
So, 21.01. 7:00 -0.9° C bedeckt
So, 21.01. 1:00 -0.4° C bedeckt
Sa, 20.01. 19:00 1.3° C bewölkt
Sa, 20.01. 13:00 2.1° C bewölkt
Sa, 20.01. 7:00 1.1° C bedeckt
Sa, 20.01. 1:00 1.1° C bewölkt
Ortszeit Temperatur Wetter
So, 21.01. 19:00 1.2° C bedeckt
So, 21.01. 18:50 1.2° C bedeckt
So, 21.01. 18:40 1.2° C bedeckt
So, 21.01. 18:30 1.3° C bedeckt
So, 21.01. 18:20 1.3° C bedeckt
So, 21.01. 18:10 1.2° C bedeckt
So, 21.01. 18:00 1.2° C bedeckt
So, 21.01. 17:30 1.1° C bedeckt
So, 21.01. 17:00 1.0° C bedeckt
So, 21.01. 16:30 0.7° C bewölkt
So, 21.01. 16:00 1.0° C bedeckt
Ortszeit Relative Feuchte Sichtweite
So, 21.01. 19:00 92% 5.0 km
So, 21.01. 13:00 99% 0.2 km
So, 21.01. 7:00 96% 1.7 km
So, 21.01. 1:00 94% 9 km
Sa, 20.01. 19:00 84% 18 km
Sa, 20.01. 13:00 87% 23 km
Sa, 20.01. 7:00 92% 16 km
Sa, 20.01. 1:00 92% 11 km
Ortszeit Relative Feuchte Sichtweite
So, 21.01. 19:00 92% 5.0 km
So, 21.01. 18:50 92% -
So, 21.01. 18:40 94% -
So, 21.01. 18:30 92% 3.7 km
So, 21.01. 18:20 92% -
So, 21.01. 18:10 94% -
So, 21.01. 18:00 93% 2.3 km
So, 21.01. 17:30 95% 2.8 km
So, 21.01. 17:00 95% 2.6 km
So, 21.01. 16:30 94% 2.0 km
So, 21.01. 16:00 94% 2.5 km
Ortszeit Niederschlagsmenge Niederschlagsart
So, 21.01. 19:00 0.0 l/m2 in 12 Std. -
So, 21.01. 13:00 0.0 l/m2 in 6 Std. -
So, 21.01. 7:00 0.1 l/m2 in 12 Std. Schnee
So, 21.01. 1:00 0.0 l/m2 in 6 Std. -
Sa, 20.01. 19:00 0.1 l/m2 in 12 Std. -
Sa, 20.01. 13:00 0.1 l/m2 in 6 Std. Schnee, Regen
Sa, 20.01. 7:00 0.3 l/m2 in 12 Std. Schnee, Regen
Sa, 20.01. 1:00 0.3 l/m2 in 6 Std. Schnee, Regen
Ortszeit Niederschlagsmenge Niederschlagsart
So, 21.01. 19:00 0.0 l/m2 in 1 Std. -
So, 21.01. 18:50 keine Meldung -
So, 21.01. 18:40 keine Meldung -
So, 21.01. 18:30 0.0 l/m2 in 1 Std. -
So, 21.01. 18:20 keine Meldung -
So, 21.01. 18:10 keine Meldung -
So, 21.01. 18:00 0.0 l/m2 in 1 Std. -
So, 21.01. 17:30 0.0 l/m2 in 1 Std. -
So, 21.01. 17:00 0.0 l/m2 in 1 Std. -
So, 21.01. 16:30 0.0 l/m2 in 1 Std. -
So, 21.01. 16:00 0.0 l/m2 in 1 Std. -
Ortszeit Stärke Spitze Richtung
km/h Bft. km/h Grad Sektor
So, 21.01. 19:00 6 1 13 190° S
So, 21.01. 13:00 6 1 15 290° W
So, 21.01. 7:00 4 1 11 240° SW
So, 21.01. 1:00 4 1 14 50° NO
Sa, 20.01. 19:00 9 2 20 140° SO
Sa, 20.01. 13:00 14 3 32 220° SW
Sa, 20.01. 7:00 9 2 20 220° SW
Sa, 20.01. 1:00 11 2 37 220° SW
Ortszeit Stärke Spitze Richtung
km/h Bft. km/h Grad Sektor
So, 21.01. 19:00 6 1 7 190° S
So, 21.01. 18:50 6 1 - 190° S
So, 21.01. 18:40 6 1 - 180° S
So, 21.01. 18:30 4 1 7 180° S
So, 21.01. 18:20 4 1 - 180° S
So, 21.01. 18:10 4 1 - 180° S
So, 21.01. 18:00 4 1 11 210° SW
So, 21.01. 17:30 4 1 7 200° S
So, 21.01. 17:00 4 1 7 190° S
So, 21.01. 16:30 4 1 4 70° O
So, 21.01. 16:00 0 0 4 - -
Ortszeit Untergrenze Bedeckung Gattung
total tief tief mittel hoch
So, 21.01. 19:00 780 m 8/8 8/8 - - -
So, 21.01. 13:00 <30 m 8/8 8/8 - - -
So, 21.01. 7:00 1500 m 8/8 8/8 - - -
So, 21.01. 1:00 1110 m 8/8 8/8 - - -
Sa, 20.01. 19:00 1260 m 8/8 7/8 - - -
Sa, 20.01. 13:00 270 m 7/8 7/8 - - -
Sa, 20.01. 7:00 450 m 8/8 8/8 - - -
Sa, 20.01. 1:00 780 m 7/8 7/8 - - -
Ortszeit Bedeckungsgrad in Achtel und Wolkenuntergrenze
So, 21.01. 19:00 8(780m)
So, 21.01. 18:50 8(780m)
So, 21.01. 18:40 8(750m)
So, 21.01. 18:30 8(690m)
So, 21.01. 18:20 8(690m)
So, 21.01. 18:10 8(660m)
So, 21.01. 18:00 8(660m)
So, 21.01. 17:30 8(660m)
So, 21.01. 17:00 8(600m)
So, 21.01. 16:30 7(600m)
So, 21.01. 16:00 8(600m)
Ortszeit Luftdruck NN (hPa) Tendenz (hPa in 3 Std.)
So, 21.01. 19:00 1017 0,0
So, 21.01. 13:00 1016 + 2,8
So, 21.01. 7:00 1009 + 3,2
So, 21.01. 1:00 1003 + 1,1
Sa, 20.01. 19:00 1002 - 1,4
Sa, 20.01. 13:00 1006 - 1,6
Sa, 20.01. 7:00 1007 - 0,8
Sa, 20.01. 1:00 1009 0,0
Ortszeit Luftdruck NN (hPa) Tendenz (hPa in 3 Std.)
So, 21.01. 19:00 1017 0,0
So, 21.01. 18:50 1017 keine Meldung
So, 21.01. 18:40 1017 keine Meldung
So, 21.01. 18:30 1017 + 0,3
So, 21.01. 18:20 1017 keine Meldung
So, 21.01. 18:10 1018 keine Meldung
So, 21.01. 18:00 1018 + 1,0
So, 21.01. 17:30 1018 + 1,3
So, 21.01. 17:00 1018 + 1,6
So, 21.01. 16:30 1017 + 1,5
So, 21.01. 16:00 1017 + 1,6
Ortszeit Schneehöhe (cm)
So, 21.01. 19:00 0
So, 21.01. 13:00 0
So, 21.01. 7:00 0
So, 21.01. 1:00 0
Sa, 20.01. 19:00 0
Sa, 20.01. 13:00 0
Sa, 20.01. 7:00 0
Sa, 20.01. 1:00 0
Ortszeit Schneehöhe (cm)
So, 21.01. 19:00 0
So, 21.01. 18:50 0
So, 21.01. 18:40 0
So, 21.01. 18:30 0
So, 21.01. 18:20 0
So, 21.01. 18:10 0
So, 21.01. 18:00 0
So, 21.01. 17:30 0
So, 21.01. 17:00 0
So, 21.01. 16:30 0
So, 21.01. 16:00 0
Link zu dieser Seite / Seite empfehlen

Das Wetter in ...